Regional Weather Roundup
Issued by NWS

Home | Current Version | Previous Version | Text Only | Print | Product List | Glossary Off
Versions: 1 2 3 4 5 6 7 8 9 10 11 12 13 14 15 16 17 18 19 20 21 22 23 24 25 26 27 28 29 30 31 32 33 34 35 36 37 38 39 40 41 42 43 44 45 46 47 48 49 50

000
ASUS45 KBOU 260207
RWRCO

WEATHER ROUNDUP FOR COLORADO
NATIONAL WEATHER SERVICE DENVER/BOULDER CO
800 PM MDT MON MAY 25 2015

NOTE: "FAIR" INDICATES FEW OR NO CLOUDS BELOW 12000 FEET WITH NO
SIGNIFICANT WEATHER AND/OR OBSTRUCTIONS TO VISIBILITY.

COZ001>005-013-030-031-260300-
...NORTHWEST COLORADO...

CITY           SKY/WX    TMP DP  RH WIND       PRES   REMARKS
CRAIG          MOCLDY   N/A N/A N/A SE5       30.03S
HAYDEN         CLOUDY    46  39  76 W18G26    30.04R
MEEKER         CLOUDY    56  41  57 NE5       30.02R
MOUNT WERNER   NOT AVBL
STEAMBOAT SPGS MOCLDY    50  42  73 E3        30.04R
WALDEN         MOCLDY    41  36  81 N8        30.08R
$$

COZ006>008-011-260300-
...WEST CENTRAL VALLEYS...

CITY           SKY/WX    TMP DP  RH WIND       PRES   REMARKS
GRAND JUNCTION PTCLDY    63  38  39 NW7       29.95R
MONTROSE       MOCLDY    57  40  52 S9        30.03S
EAGLE          CLOUDY    54  43  66 E3        30.06R
RIFLE          LGT RAIN  56  47  71 NE6       29.99R
DELTA          MOCLDY    63  44  49 MISG      29.99R
NUCLA          CLOUDY    55  43  62 E8        30.07S
$$

COZ017>023-064>068-260300-
...SOUTHWEST COLORADO...

CITY           SKY/WX    TMP DP  RH WIND       PRES   REMARKS
DURANGO        MOCLDY    55  38  52 CALM      30.06R
CORTEZ         PTCLDY    52  45  77 NE3       30.05R
PAGOSA SPRINGS MOCLDY    52  39  61 SW5       30.09S
TELLURIDE      MOCLDY    44  38  78 CALM      30.18R
WOLF CREEK PAS NOT AVBL
$$

COZ009-010-012-014-032>034-037-058>063-260300-
...CENTRAL COLORADO...

CITY           SKY/WX    TMP DP  RH WIND       PRES   REMARKS
ASPEN          MOCLDY    48  39  71 SE8       30.08R
BUENA VISTA    MOCLDY    52  32  46 W9        30.03R
COPPER MTN     CLOUDY    34  30  86 W16       30.23R WCI  23
BERTHOUD PASS  HAZE      28  21  74 NW10      30.24R VSB<1/4 WCI  19
COTTONWOOD PAS MOCLDY    46  30  53 W15G23    30.11R
GUNNISON       MOCLDY    52  34  50 N3        30.09R
KREMMLING      LGT RAIN  50  36  57 W9        30.06S
LEADVILLE      LGT RAIN  39  32  76 N13       30.14R
SALIDA         MOCLDY    56  33  41 SW12      30.08R
SUNLIGHT       CLOUDY    37  36  93 CALM      30.22S THUNDER
WILKERSON PASS MOCLDY    36  30  80 NW10G16   30.19S
$$

COZ069>075-260300-
...SAN LUIS VALLEY/SANGRE DE CRISTO MOUNTAINS...

CITY           SKY/WX    TMP DP  RH WIND       PRES   REMARKS
ALAMOSA        CLOUDY    53  36  52 SW5       30.03R
LA VETA PASS   MOCLDY   N/A N/A N/A MISG      30.14R
SAGUACHE       MOCLDY    54  32  43 N14       30.04R
$$

COZ035-036-038>040-260300-
...NORTHERN COLORADO FRONT RANGE...

CITY           SKY/WX    TMP DP  RH WIND       PRES   REMARKS
DENVER INTL AP CLOUDY    55  43  63 N9        29.97R
DMNS CITY PARK   N/A     51  49  90 S3        29.98R
AURORA         NOT AVBL
FRONT RANGE AP MOCLDY    57  48  72 N5        29.99R
ERIE MUNI ARPT CLOUDY    52  49  92 W3        29.96S
BOULDER MUN AP CLOUDY    52  46  82 W7        29.97R
CENTENNIAL     TSTM      50  46  86 E7        30.00R FOG
BROOMFIELD     CLOUDY    50  48  93 W2        29.98S
FORT COLLINS   CLOUDY    54  48  82 E3        29.98R
LONGMONT       CLOUDY    54  49  84 W5        29.98S
$$

COZ041-046-047-076>085-087-088-260300-
...PIKES PEAK/PALMER DIVIDE AND SOUTHERN FOOTHILLS...

CITY           SKY/WX    TMP DP  RH WIND       PRES   REMARKS
COLO. SPRINGS  MOCLDY    51  45  79 S9        29.99S
A. F. ACADEMY  NOT AVBL
ELLICOTT       NOT AVBL
FALCON         CLOUDY    48  43  85 CALM      30.02S
FORT CARSON    NOT AVBL
LIMON          LGT RAIN  53  47  79 N6        29.97R
MONUMENT HILL  NOT AVBL
TRINIDAD       MOCLDY    55  45  68 SE7       29.95S
$$

COZ042>045-048>051-090-091-260300-
...NORTHEAST COLORADO...

CITY           SKY/WX    TMP DP  RH WIND       PRES   REMARKS
GREELEY ARPT   MOCLDY    55  46  71 W8        29.96R
AKRON          CLOUDY    54  49  83 W5        29.93R
BURLINGTON     PTCLDY    60  46  59 N8        29.89S
WRAY           PTCLDY    58  49  74 NW9       29.89R
STERLING       CLOUDY    55  50  82 N5        29.89S
HOLYOKE        NOT AVBL
FORT MORGAN    CLOUDY    57  46  65 N3        29.94S
$$

COZ086-089-092>099-260300-
...SOUTHEAST COLORADO...

CITY           SKY/WX    TMP DP  RH WIND       PRES   REMARKS
PUEBLO         PTCLDY    58  47  66 NE6       29.93R
LA JUNTA       CLOUDY    64  54  69 NW5       29.88R
LAMAR          MOCLDY    65  50  58 NE3       29.85R
SPRINGFIELD      N/A     58  46  64 N9        29.89R
$$


USA.gov is the U.S. government's official web portal to all federal, state and local government web resources and services.